Location: Bergnerzell
(49.1816°N, 10.2565°E)
Time: 01:36:21
(UTC+00:00)

Cosmos 1703 - Pass Details

Date: 23 May 2024
Orbit: 486 x 499 km, 82.5° (Epoch: 19 June)

Event Time Altitude Azimuth Distance (km) Brightness Sun altitude
Exits shadow 02:02:18 14° 194° (SSW) 1,483 5.0 -11.0°
Maximum altitude 02:05:30 78° 279° (W) 517 3.1 -10.6°
Drops below altitude 10° 02:09:15 10° 7° (N) 1,713 6.8 -10.2°
Sets 02:11:23 0° 9° (N) 2,599 7.9 -10.0°
